Time,TemperatureF,DewpointF,PressureIn,WindDirection,WindDirectionDegrees,WindSpeedMPH,WindSpeedGustMPH,Humidity,HourlyPrecipIn,Conditions,Clouds,dailyrainin,SolarRadiationWatts/m^2,SoftwareType,DateUTC
2013-05-23 00:04:00,68.5,59.0,29.83,West,263,5.0,-999.0,71,-99.99,,,0.00,0,weatherlink.com 1.10,2013-05-23 04:04:00,
2013-05-23 01:14:00,66.1,57.0,29.82,SW,227,0.0,-999.0,73,-99.99,,,0.00,0,weatherlink.com 1.10,2013-05-23 05:14:00,
2013-05-23 01:19:00,66.1,57.0,29.81,SW,227,1.0,-999.0,73,-99.99,,,0.00,0,weatherlink.com 1.10,2013-05-23 05:19:00,
2013-05-23 01:34:00,65.6,57.0,29.81,SW,227,1.0,-999.0,74,-99.99,,,0.00,0,weatherlink.com 1.10,2013-05-23 05:34:00,
2013-05-23 01:49:00,65.1,57.0,29.79,SW,223,0.0,-999.0,74,-99.99,,,0.00,0,weatherlink.com 1.10,2013-05-23 05:49:00,
2013-05-23 02:04:00,64.5,57.0,29.79,SW,223,0.0,-999.0,77,-99.99,,,0.00,0,weatherlink.com 1.10,2013-05-23 06:04:00,
2013-05-23 02:19:00,63.5,57.0,29.79,SW,223,0.0,-999.0,79,-99.99,,,0.00,0,weatherlink.com 1.10,2013-05-23 06:19:00,
2013-05-23 02:34:00,62.7,56.0,29.79,SW,223,0.0,-999.0,80,-99.99,,,0.00,0,weatherlink.com 1.10,2013-05-23 06:34:00,
2013-05-23 02:49:00,62.1,56.0,29.79,SW,223,0.0,-999.0,81,-99.99,,,0.00,0,weatherlink.com 1.10,2013-05-23 06:49:00,
2013-05-23 03:04:00,61.7,56.0,29.78,SW,223,0.0,-999.0,82,-99.99,,,0.00,0,weatherlink.com 1.10,2013-05-23 07:04:00,
2013-05-23 03:19:00,61.5,56.0,29.78,SW,223,0.0,-999.0,82,-99.99,,,0.00,0,weatherlink.com 1.10,2013-05-23 07:19:00,
2013-05-23 03:34:00,61.3,56.0,29.78,SW,223,0.0,-999.0,83,-99.99,,,0.00,0,weatherlink.com 1.10,2013-05-23 07:34:00,
2013-05-23 03:49:00,61.3,56.0,29.78,SW,223,0.0,-999.0,82,-99.99,,,0.00,0,weatherlink.com 1.10,2013-05-23 07:49:00,
2013-05-23 04:04:00,62.2,56.0,29.78,South,190,2.0,-999.0,80,-99.99,,,0.00,0,weatherlink.com 1.10,2013-05-23 08:04:00,
2013-05-23 04:19:00,63.0,56.0,29.79,South,190,2.0,-999.0,78,-99.99,,,0.00,0,weatherlink.com 1.10,2013-05-23 08:19:00,
2013-05-23 04:34:00,63.4,56.0,29.79,South,190,0.0,-999.0,77,-99.99,,,0.00,0,weatherlink.com 1.10,2013-05-23 08:34:00,
2013-05-23 04:49:00,63.8,56.0,29.79,SW,222,6.0,-999.0,76,-99.99,,,0.00,0,weatherlink.com 1.10,2013-05-23 08:49:00,
2013-05-23 05:04:00,64.5,57.0,29.79,SW,220,2.0,-999.0,76,-99.99,,,0.00,0,weatherlink.com 1.10,2013-05-23 09:04:00,
2013-05-23 05:19:00,64.5,57.0,29.79,SSW,205,0.0,-999.0,76,-99.99,,,0.00,0,weatherlink.com 1.10,2013-05-23 09:19:00,
2013-05-23 05:34:00,64.2,57.0,29.80,SSW,200,2.0,-999.0,77,-99.99,,,0.00,5,weatherlink.com 1.10,2013-05-23 09:34:00,
2013-05-23 05:49:00,63.7,57.0,29.80,SSW,200,0.0,-999.0,78,-99.99,,,0.00,14,weatherlink.com 1.10,2013-05-23 09:49:00,
2013-05-23 06:04:00,63.3,57.0,29.81,SSW,200,1.0,-999.0,79,-99.99,,,0.00,32,weatherlink.com 1.10,2013-05-23 10:04:00,
2013-05-23 06:19:00,63.1,57.0,29.81,SSW,195,2.0,-999.0,80,-99.99,,,0.00,91,weatherlink.com 1.10,2013-05-23 10:19:00,
2013-05-23 06:34:00,63.8,58.0,29.81,South,186,0.0,-999.0,80,-99.99,,,0.00,153,weatherlink.com 1.10,2013-05-23 10:34:00,
2013-05-23 06:49:00,65.2,58.0,29.82,SW,223,6.0,-999.0,77,-99.99,,,0.00,90,weatherlink.com 1.10,2013-05-23 10:49:00,
2013-05-23 07:04:00,66.1,58.0,29.82,SW,230,0.0,-999.0,75,-99.99,,,0.00,302,weatherlink.com 1.10,2013-05-23 11:04:00,
2013-05-23 07:19:00,66.7,59.0,29.82,South,183,5.0,-999.0,75,-99.99,,,0.00,107,weatherlink.com 1.10,2013-05-23 11:19:00,
2013-05-23 07:34:00,66.6,58.0,29.82,SSW,198,4.0,-999.0,74,-99.99,,,0.00,76,weatherlink.com 1.10,2013-05-23 11:34:00,
2013-05-23 07:49:00,66.3,58.0,29.82,SSW,209,5.0,-999.0,74,-99.99,,,0.00,146,weatherlink.com 1.10,2013-05-23 11:49:00,
2013-05-23 08:04:00,66.6,58.0,29.82,SW,217,4.0,-999.0,74,-99.99,,,0.00,213,weatherlink.com 1.10,2013-05-23 12:04:00,
2013-05-23 08:19:00,67.1,59.0,29.81,WSW,237,3.0,-999.0,74,-99.99,,,0.00,149,weatherlink.com 1.10,2013-05-23 12:19:00,
2013-05-23 08:34:00,67.3,59.0,29.82,SW,214,1.0,-999.0,74,-99.99,,,0.00,176,weatherlink.com 1.10,2013-05-23 12:34:00,
2013-05-23 08:49:00,67.6,59.0,29.81,South,178,5.0,-999.0,74,-99.99,,,0.00,188,weatherlink.com 1.10,2013-05-23 12:49:00,
2013-05-23 09:04:00,67.7,59.0,29.81,SW,215,2.0,-999.0,73,-99.99,,,0.00,267,weatherlink.com 1.10,2013-05-23 13:04:00,
2013-05-23 09:19:00,68.2,59.0,29.80,WSW,248,1.0,-999.0,73,-99.99,,,0.00,292,weatherlink.com 1.10,2013-05-23 13:19:00,
2013-05-23 09:34:00,68.8,59.0,29.81,WSW,240,5.0,-999.0,72,-99.99,,,0.00,260,weatherlink.com 1.10,2013-05-23 13:34:00,
2013-05-23 09:49:00,68.5,60.0,29.82,SSW,207,11.0,-999.0,73,-99.99,,,0.00,313,weatherlink.com 1.10,2013-05-23 13:49:00,
2013-05-23 10:04:00,68.2,60.0,29.82,SSW,208,2.0,-999.0,75,-99.99,,,0.00,241,weatherlink.com 1.10,2013-05-23 14:04:00,
2013-05-23 10:19:00,67.0,60.0,29.82,WSW,250,11.0,-999.0,78,-99.99,,,0.00,200,weatherlink.com 1.10,2013-05-23 14:19:00,
2013-05-23 10:34:00,66.2,60.0,29.82,WSW,242,5.0,-999.0,79,-99.99,,,0.00,160,weatherlink.com 1.10,2013-05-23 14:34:00,
2013-05-23 10:50:00,66.0,60.0,29.82,SSW,203,6.0,-999.0,80,-99.99,,,0.00,220,weatherlink.com 1.10,2013-05-23 14:50:00,
2013-05-23 11:04:00,66.1,60.0,29.83,SW,235,3.0,-999.0,80,-99.99,,,0.00,169,weatherlink.com 1.10,2013-05-23 15:04:00,
2013-05-23 11:19:00,66.2,60.0,29.82,SSW,201,4.0,-999.0,79,-99.99,,,0.00,141,weatherlink.com 1.10,2013-05-23 15:19:00,
2013-05-23 11:35:00,66.2,60.0,29.82,South,176,2.0,-999.0,80,-99.99,,,0.00,229,weatherlink.com 1.10,2013-05-23 15:35:00,
2013-05-23 11:49:00,66.3,60.0,29.82,SW,236,1.0,-999.0,80,-99.99,,,0.00,322,weatherlink.com 1.10,2013-05-23 15:49:00,
2013-05-23 12:05:00,66.5,60.0,29.82,SSW,198,1.0,-999.0,79,-99.99,,,0.00,294,weatherlink.com 1.10,2013-05-23 16:05:00,
2013-05-23 12:19:00,67.3,60.0,29.82,SW,221,2.0,-999.0,77,-99.99,,,0.00,436,weatherlink.com 1.10,2013-05-23 16:19:00,
2013-05-23 12:34:00,70.0,61.0,29.82,SW,226,12.0,-999.0,74,-99.99,,,0.00,710,weatherlink.com 1.10,2013-05-23 16:34:00,
2013-05-23 12:50:00,70.5,61.0,29.81,SSW,211,6.0,-999.0,72,-99.99,,,0.00,589,weatherlink.com 1.10,2013-05-23 16:50:00,
2013-05-23 13:04:00,72.3,62.0,29.80,SSW,193,9.0,-999.0,70,-99.99,,,0.00,1188,weatherlink.com 1.10,2013-05-23 17:04:00,
2013-05-23 13:20:00,72.6,61.0,29.80,SSW,208,10.0,-999.0,68,-99.99,,,0.00,613,weatherlink.com 1.10,2013-05-23 17:20:00,
2013-05-23 13:35:00,73.0,61.0,29.79,SW,214,9.0,-999.0,66,-99.99,,,0.00,596,weatherlink.com 1.10,2013-05-23 17:35:00,
2013-05-23 13:50:00,72.1,61.0,29.79,SSW,209,11.0,-999.0,68,-99.99,,,0.00,455,weatherlink.com 1.10,2013-05-23 17:50:00,
2013-05-23 14:05:00,71.7,61.0,29.79,South,188,12.0,-999.0,68,-99.99,,,0.00,236,weatherlink.com 1.10,2013-05-23 18:05:00,
2013-05-23 14:20:00,70.7,61.0,29.79,SSW,202,9.0,-999.0,72,-99.99,,,0.00,227,weatherlink.com 1.10,2013-05-23 18:20:00,
2013-05-23 14:35:00,68.8,62.0,29.78,SSW,192,2.0,-999.0,79,-99.99,,,0.01,271,weatherlink.com 1.10,2013-05-23 18:35:00,
2013-05-23 14:50:00,68.6,62.0,29.77,South,191,3.0,-999.0,78,-99.99,,,0.01,443,weatherlink.com 1.10,2013-05-23 18:50:00,
2013-05-23 15:05:00,69.3,61.0,29.77,South,180,4.0,-999.0,76,-99.99,,,0.01,304,weatherlink.com 1.10,2013-05-23 19:05:00,
2013-05-23 15:20:00,69.1,62.0,29.77,South,190,0.0,-999.0,77,-99.99,,,0.01,292,weatherlink.com 1.10,2013-05-23 19:20:00,
2013-05-23 15:35:00,69.5,63.0,29.76,South,186,4.0,-999.0,79,-99.99,,,0.01,346,weatherlink.com 1.10,2013-05-23 19:35:00,
2013-05-23 15:50:00,69.5,62.0,29.76,South,190,6.0,-999.0,77,-99.99,,,0.01,186,weatherlink.com 1.10,2013-05-23 19:50:00,
2013-05-23 16:05:00,69.4,62.0,29.76,South,186,3.0,-999.0,76,-99.99,,,0.01,371,weatherlink.com 1.10,2013-05-23 20:05:00,
2013-05-23 16:20:00,70.2,62.0,29.76,South,185,5.0,-999.0,75,-99.99,,,0.01,181,weatherlink.com 1.10,2013-05-23 20:20:00,
2013-05-23 16:35:00,69.9,62.0,29.75,South,175,2.0,-999.0,75,-99.99,,,0.01,125,weatherlink.com 1.10,2013-05-23 20:35:00,
2013-05-23 16:50:00,69.7,61.0,29.75,SSW,200,1.0,-999.0,75,-99.99,,,0.01,132,weatherlink.com 1.10,2013-05-23 20:50:00,
2013-05-23 17:05:00,70.0,61.0,29.74,NE,36,3.0,-999.0,74,-99.99,,,0.01,250,weatherlink.com 1.10,2013-05-23 21:05:00,
2013-05-23 17:20:00,70.5,61.0,29.74,SSE,155,2.0,-999.0,73,-99.99,,,0.01,311,weatherlink.com 1.10,2013-05-23 21:20:00,
2013-05-23 17:35:00,70.8,61.0,29.73,South,169,2.0,-999.0,72,-99.99,,,0.01,193,weatherlink.com 1.10,2013-05-23 21:35:00,
2013-05-23 17:50:00,70.6,62.0,29.73,East,97,3.0,-999.0,73,-99.99,,,0.01,244,weatherlink.com 1.10,2013-05-23 21:50:00,
2013-05-23 18:05:00,71.9,62.0,29.73,SSW,194,5.0,-999.0,71,-99.99,,,0.01,297,weatherlink.com 1.10,2013-05-23 22:05:00,
2013-05-23 18:20:00,71.8,61.0,29.73,SSW,213,7.0,-999.0,68,-99.99,,,0.01,255,weatherlink.com 1.10,2013-05-23 22:20:00,
2013-05-23 18:35:00,71.4,61.0,29.73,South,176,3.0,-999.0,70,-99.99,,,0.01,174,weatherlink.com 1.10,2013-05-23 22:35:00,
2013-05-23 18:50:00,70.5,61.0,29.73,SSW,207,1.0,-999.0,71,-99.99,,,0.01,67,weatherlink.com 1.10,2013-05-23 22:50:00,
2013-05-23 19:05:00,69.7,61.0,29.74,SW,215,3.0,-999.0,73,-99.99,,,0.01,25,weatherlink.com 1.10,2013-05-23 23:05:00,
2013-05-23 19:20:00,69.0,61.0,29.75,South,170,4.0,-999.0,75,-99.99,,,0.01,28,weatherlink.com 1.10,2013-05-23 23:20:00,
2013-05-23 19:35:00,68.6,61.0,29.74,SSW,200,11.0,-999.0,76,-99.99,,,0.01,42,weatherlink.com 1.10,2013-05-23 23:35:00,
2013-05-23 19:50:00,68.2,60.0,29.74,SSW,196,4.0,-999.0,76,-99.99,,,0.01,42,weatherlink.com 1.10,2013-05-23 23:50:00,
2013-05-23 20:05:00,67.7,60.0,29.74,South,178,5.0,-999.0,77,-99.99,,,0.01,19,weatherlink.com 1.10,2013-05-24 00:05:00,
2013-05-23 20:20:00,67.2,60.0,29.74,SSE,159,2.0,-999.0,78,-99.99,,,0.01,0,weatherlink.com 1.10,2013-05-24 00:20:00,
2013-05-23 20:35:00,66.7,60.0,29.74,SW,223,0.0,-999.0,79,-99.99,,,0.01,0,weatherlink.com 1.10,2013-05-24 00:35:00,
2013-05-23 20:50:00,66.2,60.0,29.73,SW,217,0.0,-999.0,80,-99.99,,,0.01,0,weatherlink.com 1.10,2013-05-24 00:50:00,
2013-05-23 21:05:00,65.8,60.0,29.75,SW,217,3.0,-999.0,80,-99.99,,,0.01,0,weatherlink.com 1.10,2013-05-24 01:05:00,
2013-05-23 21:20:00,64.2,57.0,29.76,NNW,330,7.0,-999.0,77,-99.99,,,0.01,0,weatherlink.com 1.10,2013-05-24 01:20:00,
2013-05-23 21:35:00,62.9,57.0,29.75,NNW,328,0.0,-999.0,82,-99.99,,,0.05,0,weatherlink.com 1.10,2013-05-24 01:35:00,
2013-05-23 21:50:00,61.9,57.0,29.75,NNW,328,1.0,-999.0,84,-99.99,,,0.05,0,weatherlink.com 1.10,2013-05-24 01:50:00,
2013-05-23 22:05:00,60.9,57.0,29.75,SW,225,0.0,-999.0,86,-99.99,,,0.07,0,weatherlink.com 1.10,2013-05-24 02:05:00,
2013-05-23 22:20:00,60.1,57.0,29.75,SSW,196,0.0,-999.0,88,-99.99,,,0.09,0,weatherlink.com 1.10,2013-05-24 02:20:00,
2013-05-23 22:35:00,59.7,57.0,29.75,SSW,199,2.0,-999.0,90,-99.99,,,0.12,0,weatherlink.com 1.10,2013-05-24 02:35:00,
2013-05-23 22:50:00,59.3,56.0,29.74,SSW,199,0.0,-999.0,90,-99.99,,,0.15,0,weatherlink.com 1.10,2013-05-24 02:50:00,
2013-05-23 23:05:00,59.1,57.0,29.74,SSW,199,0.0,-999.0,91,-99.99,,,0.16,0,weatherlink.com 1.10,2013-05-24 03:05:00,
2013-05-23 23:20:00,59.0,56.0,29.73,SSW,199,0.0,-999.0,91,-99.99,,,0.16,0,weatherlink.com 1.10,2013-05-24 03:20:00,
2013-05-23 23:35:00,58.9,57.0,29.73,SSW,199,0.0,-999.0,92,-99.99,,,0.16,0,weatherlink.com 1.10,2013-05-24 03:35:00,
2013-05-23 23:50:00,58.8,57.0,29.74,SSW,199,0.0,-999.0,92,-99.99,,,0.17,0,weatherlink.com 1.10,2013-05-24 03:50:00,